This is the latest recevied weather packets stored in our database for station/object N4RCT. If no packets are shown the sender has not sent any weather packets the latest 10 day(s).
| Time | Temp. | Humidity | Pressure | Rain* | Wind** | Luminosity | Snow |
|---|---|---|---|---|---|---|---|
| 1777937762 | 22.78° C | 49% | 1012.5 hPa | 0 mm | - | 16 W/m² | - |
| 1777937458 | 22.78° C | 48% | 1012.4 hPa | 0 mm | - | 16 W/m² | - |
| 1777937156 | 22.78° C | 48% | 1012.4 hPa | 0 mm | - | 19 W/m² | - |
| 1777936853 | 23.33° C | 48% | 1012.5 hPa | 0 mm | - | 24 W/m² | - |
| 1777936550 | 23.33° C | 47% | 1012.7 hPa | 0 mm | - | 25 W/m² | - |
| 1777936246 | 23.33° C | 46% | 1012.5 hPa | 0 mm | - | 26 W/m² | - |
| 1777935942 | 23.89° C | 47% | 1012.4 hPa | 0 mm | - | 27 W/m² | - |
| 1777935641 | 23.89° C | 44% | 1012.4 hPa | 0 mm | - | 28 W/m² | - |
| 1777935338 | 23.89° C | 45% | 1012.4 hPa | 0 mm | - | 29 W/m² | - |
| 1777935035 | 23.89° C | 45% | 1012.4 hPa | 0 mm | - | 31 W/m² | - |
| 1777934731 | 23.89° C | 44% | 1012.4 hPa | 0 mm | - | 32 W/m² | - |
| 1777934429 | 24.44° C | 44% | 1012.5 hPa | 0 mm | - | 34 W/m² | - |
| 1777934125 | 24.44° C | 43% | 1012.7 hPa | 0 mm | - | 34 W/m² | - |
| 1777933821 | 24.44° C | 43% | 1012.5 hPa | 0 mm | - | 35 W/m² | - |
| 1777933518 | 24.44° C | 44% | 1012.6 hPa | 0 mm | - | 35 W/m² | - |
| 1777933216 | 24.44° C | 43% | 1012.7 hPa | 0 mm | - | 35 W/m² | - |
| 1777932913 | 24.44° C | 48% | 1012.6 hPa | 0 mm | - | 36 W/m² | - |
| 1777932609 | 24.44° C | 45% | 1012.6 hPa | 0 mm | - | 38 W/m² | - |
| 1777932306 | 24.44° C | 45% | 1012.4 hPa | 0 mm | - | 40 W/m² | - |
| 1777932003 | 24.44° C | 47% | 1012.8 hPa | 0 mm | - | 44 W/m² | - |
| 1777931700 | 24.44° C | 47% | 1012.5 hPa | 0 mm | - | 46 W/m² | - |
| 1777931396 | 25° C | 48% | 1012.6 hPa | 0 mm | - | 47 W/m² | - |
| 1777931093 | 25° C | 46% | 1012.3 hPa | 0 mm | - | 51 W/m² | - |
| 1777930789 | 25° C | 45% | 1012.6 hPa | 0 mm | - | 75 W/m² | - |
| 1777930485 | 25° C | 44% | 1012.4 hPa | 0 mm | - | 72 W/m² | - |
* Rain latest hour (hover to see other rain measurements)
** Current wind speed in m/s (hover to see current wind gust speed)